{"data":{"norad_id":53389,"intl_designator":"2022-097B","name":"STARLINK-4523","alt_names":[],"object_type":"PAYLOAD","status":"ACTIVE","operator":null,"country":"US","launch_date":"2022-08-10","launch_site_code":"AFETR","launch_vehicle":null,"mission":null,"orbit_class":"UNKNOWN","rcs_meters":null,"size_class":null,"mass_kg":null,"dimensions":null,"purposes":["comms"],"wikipedia_slug":null,"has_3d_model":false,"image_url":null,"decayed_at":null,"tle_current":{"epoch":"2026-05-25T03:46:09.585696Z","epoch_age_seconds":60806,"freshness":"FRESH","line1":"1 53389U 22097B   26145.15705539  .00004998  00000+0  33121-3 0  9993","line2":"2 53389  53.2137 140.8436 0001263 104.2967 255.8165 15.08913604210213","mean_motion":15.08913604,"eccentricity":0.0001263,"inclination_deg":53.2137,"raan_deg":140.8436,"arg_perigee_deg":104.2967,"mean_anomaly_deg":255.8165,"bstar":0.00033121,"rev_number":21021,"period_min":95.432899284802,"perigee_km":538.64472024758,"apogee_km":540.3921200067,"semimajor_km":6917.6554201271,"source":"CELESTRAK","updated_at":"2026-05-25T13:38:17.393605Z"}}}